Wetterdaten: aktuell Donnerstag, 03.09.2026 21:00
Datum Zeit Temp. Feuchte Luftdruck Nieders. Wind Richtung Richtung Sonnenschein Solar Taupunkt Windchill Windböen
03.09.2026 21:00 20,2 °C 79 % 1018,6 hPa 0,0 l/m² 0,0 km/h (0 Bft) W 269 ° 0 min 0 W/m² 16,4 °C 20,2 °C 0,0 km/h (0 Bft)
03.09.2026 20:55 20,2 °C 79 % 1018,7 hPa 0,0 l/m² 0,0 km/h (0 Bft) W 268 ° 0 min 0 W/m² 16,4 °C 20,2 °C 0,0 km/h (0 Bft)
03.09.2026 20:50 20,2 °C 79 % 1018,6 hPa 0,0 l/m² 0,0 km/h (0 Bft) W 268 ° 0 min 0 W/m² 16,4 °C 20,2 °C 0,0 km/h (0 Bft)
03.09.2026 20:45 20,3 °C 79 % 1018,5 hPa 0,0 l/m² 0,0 km/h (0 Bft) W 269 ° 0 min 0 W/m² 16,5 °C 20,3 °C 0,0 km/h (0 Bft)
03.09.2026 20:40 20,3 °C 78 % 1018,7 hPa 0,0 l/m² 0,0 km/h (0 Bft) W 269 ° 0 min 0 W/m² 16,3 °C 20,3 °C 0,0 km/h (0 Bft)
03.09.2026 20:35 20,4 °C 78 % 1018,7 hPa 0,0 l/m² 0,0 km/h (0 Bft) W 269 ° 0 min 0 W/m² 16,4 °C 20,4 °C 0,0 km/h (0 Bft)
03.09.2026 20:30 20,5 °C 78 % 1018,8 hPa 0,0 l/m² 0,0 km/h (0 Bft) W 269 ° 0 min 0 W/m² 16,5 °C 20,5 °C 0,0 km/h (0 Bft)
03.09.2026 20:25 20,6 °C 78 % 1019,0 hPa 0,0 l/m² 0,0 km/h (0 Bft) W 269 ° 0 min 0 W/m² 16,6 °C 20,6 °C 0,0 km/h (0 Bft)
03.09.2026 20:20 20,7 °C 78 % 1018,9 hPa 0,0 l/m² 0,0 km/h (0 Bft) W 268 ° 0 min 0 W/m² 16,7 °C 20,7 °C 0,0 km/h (0 Bft)
03.09.2026 20:15 20,7 °C 78 % 1018,8 hPa 0,0 l/m² 0,0 km/h (0 Bft) W 268 ° 0 min 0 W/m² 16,7 °C 20,7 °C 0,0 km/h (0 Bft)
03.09.2026 20:10 20,8 °C 77 % 1018,8 hPa 0,0 l/m² 0,0 km/h (0 Bft) W 269 ° 0 min 0 W/m² 16,6 °C 20,8 °C 0,0 km/h (0 Bft)
03.09.2026 20:05 20,9 °C 77 % 1018,9 hPa 0,0 l/m² 0,0 km/h (0 Bft) W 269 ° 0 min 0 W/m² 16,7 °C 20,9 °C 0,0 km/h (0 Bft)
03.09.2026 20:00 20,9 °C 77 % 1018,8 hPa 0,0 l/m² 0,0 km/h (0 Bft) W 269 ° 0 min 0 W/m² 16,7 °C 20,9 °C 0,0 km/h (0 Bft)
03.09.2026 19:55 21,0 °C 77 % 1018,8 hPa 0,0 l/m² 0,0 km/h (0 Bft) W 269 ° 0 min 7 W/m² 16,8 °C 21,0 °C 0,0 km/h (0 Bft)
03.09.2026 19:50 21,1 °C 77 % 1018,7 hPa 0,0 l/m² 0,1 km/h (0 Bft) W 269 ° 0 min 9 W/m² 16,9 °C 21,1 °C 6,4 km/h (2 Bft)
03.09.2026 19:45 21,2 °C 77 % 1018,7 hPa 0,0 l/m² 0,0 km/h (0 Bft) W 266 ° 0 min 18 W/m² 17,0 °C 21,2 °C 0,0 km/h (0 Bft)
03.09.2026 19:40 21,3 °C 77 % 1018,6 hPa 0,0 l/m² 0,0 km/h (0 Bft) W 265 ° 0 min 14 W/m² 17,1 °C 21,3 °C 0,0 km/h (0 Bft)
03.09.2026 19:35 21,4 °C 76 % 1018,6 hPa 0,0 l/m² 0,2 km/h (0 Bft) W 266 ° 0 min 19 W/m² 17,0 °C 21,4 °C 4,8 km/h (1 Bft)
03.09.2026 19:30 21,6 °C 76 % 1018,6 hPa 0,0 l/m² 0,3 km/h (0 Bft) W 266 ° 0 min 28 W/m² 17,2 °C 21,6 °C 4,8 km/h (1 Bft)
03.09.2026 19:25 21,7 °C 75 % 1018,5 hPa 0,0 l/m² 0,0 km/h (0 Bft) W 265 ° 0 min 28 W/m² 17,1 °C 21,7 °C 0,0 km/h (0 Bft)
03.09.2026 19:20 21,8 °C 75 % 1018,5 hPa 0,0 l/m² 0,0 km/h (0 Bft) W 265 ° 0 min 33 W/m² 17,2 °C 21,8 °C 0,0 km/h (0 Bft)
03.09.2026 19:15 21,9 °C 74 % 1018,6 hPa 0,0 l/m² 0,0 km/h (0 Bft) NW 304 ° 0 min 37 W/m² 17,0 °C 21,9 °C 0,0 km/h (0 Bft)
03.09.2026 19:10 22,1 °C 73 % 1018,6 hPa 0,0 l/m² 0,0 km/h (0 Bft) W-NW 297 ° 0 min 26 W/m² 17,0 °C 22,1 °C 0,0 km/h (0 Bft)
03.09.2026 19:05 22,3 °C 72 % 1018,5 hPa 0,0 l/m² 0,0 km/h (0 Bft) W-NW 286 ° 0 min 21 W/m² 17,0 °C 22,3 °C 0,0 km/h (0 Bft)
03.09.2026 19:00 22,4 °C 71 % 1018,5 hPa 0,0 l/m² 0,0 km/h (0 Bft) W-NW 300 ° 0 min 16 W/m² 16,9 °C 22,4 °C 0,0 km/h (0 Bft)
03.09.2026 18:55 22,6 °C 70 % 1018,4 hPa 0,0 l/m² 0,0 km/h (0 Bft) W-NW 291 ° 0 min 23 W/m² 16,8 °C 22,6 °C 0,0 km/h (0 Bft)
03.09.2026 18:50 22,8 °C 68 % 1018,4 hPa 0,0 l/m² 0,0 km/h (0 Bft) W-SW 253 ° 0 min 32 W/m² 16,6 °C 22,8 °C 0,0 km/h (0 Bft)
03.09.2026 18:45 23,1 °C 67 % 1018,3 hPa 0,0 l/m² 0,0 km/h (0 Bft) W-NW 296 ° 0 min 35 W/m² 16,6 °C 23,1 °C 0,0 km/h (0 Bft)
03.09.2026 18:40 23,3 °C 65 % 1018,3 hPa 0,0 l/m² 0,0 km/h (0 Bft) NW 321 ° 0 min 49 W/m² 16,3 °C 23,3 °C 0,0 km/h (0 Bft)
03.09.2026 18:35 23,6 °C 63 % 1018,2 hPa 0,0 l/m² 0,0 km/h (0 Bft) W-NW 293 ° 0 min 53 W/m² 16,1 °C 23,6 °C 0,0 km/h (0 Bft)
03.09.2026 18:30 23,8 °C 62 % 1018,2 hPa 0,0 l/m² 1,4 km/h (1 Bft) NW 315 ° 0 min 47 W/m² 16,1 °C 23,8 °C 27,4 km/h (5 Bft)
03.09.2026 18:25 24,2 °C 60 % 1018,1 hPa 0,0 l/m² 7,5 km/h (2 Bft) NW 322 ° 0 min 56 W/m² 15,9 °C 23,9 °C 17,7 km/h (3 Bft)
03.09.2026 18:20 24,4 °C 58 % 1017,9 hPa 0,0 l/m² 8,5 km/h (2 Bft) N-NW 340 ° 0 min 49 W/m² 15,6 °C 23,8 °C 16,1 km/h (3 Bft)
03.09.2026 18:15 24,4 °C 57 % 1017,8 hPa 0,0 l/m² 5,8 km/h (2 Bft) W 263 ° 0 min 53 W/m² 15,3 °C 24,4 °C 16,1 km/h (3 Bft)
03.09.2026 18:10 24,6 °C 56 % 1017,8 hPa 0,0 l/m² 4,2 km/h (1 Bft) W-NW 290 ° 0 min 30 W/m² 15,2 °C 24,6 °C 16,1 km/h (3 Bft)
03.09.2026 18:05 24,7 °C 55 % 1017,8 hPa 0,0 l/m² 7,5 km/h (2 Bft) NW 309 ° 0 min 26 W/m² 15,0 °C 24,4 °C 17,7 km/h (3 Bft)
03.09.2026 18:00 24,8 °C 55 % 1017,8 hPa 0,0 l/m² 5,8 km/h (2 Bft) W-NW 294 ° 0 min 26 W/m² 15,1 °C 24,8 °C 14,5 km/h (3 Bft)
03.09.2026 17:55 24,8 °C 54 % 1017,7 hPa 0,0 l/m² 6,2 km/h (2 Bft) SW 229 ° 0 min 30 W/m² 14,8 °C 24,8 °C 16,1 km/h (3 Bft)
03.09.2026 17:50 24,9 °C 54 % 1017,6 hPa 0,0 l/m² 6,9 km/h (2 Bft) W-NW 285 ° 0 min 54 W/m² 14,9 °C 24,8 °C 20,9 km/h (4 Bft)
03.09.2026 17:45 25,1 °C 53 % 1017,6 hPa 0,0 l/m² 7,8 km/h (2 Bft) SW 233 ° 0 min 74 W/m² 14,8 °C 24,8 °C 17,7 km/h (3 Bft)
03.09.2026 17:40 25,2 °C 53 % 1017,6 hPa 0,0 l/m² 5,7 km/h (2 Bft) W 278 ° 0 min 72 W/m² 14,9 °C 25,2 °C 16,1 km/h (3 Bft)
03.09.2026 17:35 25,3 °C 52 % 1017,7 hPa 0,0 l/m² 6,7 km/h (2 Bft) W-NW 300 ° 0 min 53 W/m² 14,7 °C 25,2 °C 14,5 km/h (3 Bft)
03.09.2026 17:30 25,5 °C 52 % 1017,7 hPa 0,0 l/m² 7,3 km/h (2 Bft) S-SW 210 ° 0 min 118 W/m² 14,9 °C 25,3 °C 19,3 km/h (3 Bft)
03.09.2026 17:25 25,6 °C 52 % 1017,7 hPa 0,0 l/m² 3,8 km/h (1 Bft) W 267 ° 5 min 160 W/m² 15,0 °C 25,6 °C 16,1 km/h (3 Bft)
03.09.2026 17:20 25,7 °C 52 % 1017,7 hPa 0,0 l/m² 4,5 km/h (1 Bft) S-SW 202 ° 5 min 163 W/m² 15,1 °C 25,7 °C 17,7 km/h (3 Bft)
03.09.2026 17:15 25,6 °C 53 % 1017,5 hPa 0,0 l/m² 1,6 km/h (1 Bft) SW 234 ° 5 min 193 W/m² 15,3 °C 25,6 °C 12,9 km/h (3 Bft)
03.09.2026 17:10 25,4 °C 52 % 1017,6 hPa 0,0 l/m² 3,7 km/h (1 Bft) S 169 ° 5 min 202 W/m² 14,8 °C 25,4 °C 11,3 km/h (2 Bft)
03.09.2026 17:05 25,1 °C 54 % 1017,7 hPa 0,0 l/m² 0,9 km/h (0 Bft) W-SW 240 ° 5 min 457 W/m² 15,1 °C 25,1 °C 8,0 km/h (2 Bft)
03.09.2026 17:00 24,9 °C 54 % 1017,8 hPa 0,0 l/m² 1,0 km/h (0 Bft) W-SW 240 ° 5 min 213 W/m² 14,9 °C 24,9 °C 14,5 km/h (3 Bft)
03.09.2026 16:55 24,9 °C 54 % 1017,8 hPa 0,0 l/m² 3,1 km/h (1 Bft) W-NW 295 ° 0 min 135 W/m² 14,9 °C 24,9 °C 11,3 km/h (2 Bft)
03.09.2026 16:50 24,9 °C 53 % 1017,8 hPa 0,0 l/m² 4,8 km/h (1 Bft) W-SW 256 ° 5 min 158 W/m² 14,6 °C 24,9 °C 17,7 km/h (3 Bft)
03.09.2026 16:45 24,8 °C 54 % 1017,9 hPa 0,0 l/m² 4,7 km/h (1 Bft) W-NW 284 ° 5 min 158 W/m² 14,8 °C 24,8 °C 19,3 km/h (3 Bft)
03.09.2026 16:40 24,7 °C 53 % 1017,9 hPa 0,0 l/m² 5,8 km/h (2 Bft) W-NW 291 ° 5 min 188 W/m² 14,5 °C 24,7 °C 24,1 km/h (4 Bft)
03.09.2026 16:35 24,7 °C 54 % 1018,0 hPa 0,0 l/m² 7,0 km/h (2 Bft) NW 311 ° 0 min 116 W/m² 14,8 °C 24,5 °C 17,7 km/h (3 Bft)
03.09.2026 16:30 24,6 °C 54 % 1017,9 hPa 0,0 l/m² 6,3 km/h (2 Bft) W-NW 298 ° 5 min 223 W/m² 14,7 °C 24,6 °C 30,6 km/h (5 Bft)
03.09.2026 16:25 24,4 °C 55 % 1017,9 hPa 0,0 l/m² 4,4 km/h (1 Bft) W-NW 287 ° 5 min 181 W/m² 14,8 °C 24,4 °C 12,9 km/h (3 Bft)
03.09.2026 16:20 24,3 °C 55 % 1017,9 hPa 0,0 l/m² 3,1 km/h (1 Bft) W-NW 298 ° 0 min 137 W/m² 14,7 °C 24,3 °C 17,7 km/h (3 Bft)
03.09.2026 16:15 24,2 °C 54 % 1017,8 hPa 0,0 l/m² 2,0 km/h (1 Bft) W-NW 287 ° 5 min 160 W/m² 14,3 °C 24,2 °C 16,1 km/h (3 Bft)
03.09.2026 16:10 24,1 °C 55 % 1017,9 hPa 0,0 l/m² 1,6 km/h (1 Bft) SW 221 ° 0 min 141 W/m² 14,5 °C 24,1 °C 17,7 km/h (3 Bft)
03.09.2026 16:05 24,1 °C 55 % 1017,9 hPa 0,0 l/m² 0,2 km/h (0 Bft) W-NW 292 ° 0 min 125 W/m² 14,5 °C 24,1 °C 12,9 km/h (3 Bft)
03.09.2026 16:00 24,0 °C 55 % 1018,0 hPa 0,0 l/m² 1,6 km/h (1 Bft) NW 316 ° 0 min 139 W/m² 14,4 °C 24,0 °C 19,3 km/h (3 Bft)
03.09.2026 15:55 23,9 °C 55 % 1017,9 hPa 0,0 l/m² 1,5 km/h (1 Bft) W-NW 284 ° 0 min 127 W/m² 14,3 °C 23,9 °C 16,1 km/h (3 Bft)
03.09.2026 15:50 23,9 °C 55 % 1018,2 hPa 0,0 l/m² 4,9 km/h (1 Bft) W-NW 300 ° 0 min 121 W/m² 14,3 °C 23,9 °C 19,3 km/h (3 Bft)
03.09.2026 15:45 23,9 °C 55 % 1018,0 hPa 0,0 l/m² 3,0 km/h (1 Bft) W 271 ° 0 min 91 W/m² 14,3 °C 23,9 °C 14,5 km/h (3 Bft)
03.09.2026 15:40 23,7 °C 55 % 1018,0 hPa 0,0 l/m² 4,2 km/h (1 Bft) W-SW 240 ° 5 min 169 W/m² 14,1 °C 23,7 °C 16,1 km/h (3 Bft)
03.09.2026 15:35 23,4 °C 55 % 1018,0 hPa 0,0 l/m² 6,3 km/h (2 Bft) W-NW 296 ° 5 min 162 W/m² 13,8 °C 23,4 °C 17,7 km/h (3 Bft)
03.09.2026 15:30 23,3 °C 60 % 1018,1 hPa 0,0 l/m² 0,1 km/h (0 Bft) W-NW 300 ° 0 min 113 W/m² 15,1 °C 23,3 °C 4,8 km/h (1 Bft)
03.09.2026 15:25 23,3 °C 60 % 1018,0 hPa 0,0 l/m² 0,1 km/h (0 Bft) W-NW 300 ° 5 min 193 W/m² 15,1 °C 23,3 °C 4,8 km/h (1 Bft)
03.09.2026 15:20 23,2 °C 61 % 1018,1 hPa 0,0 l/m² 0,2 km/h (0 Bft) W-NW 300 ° 5 min 174 W/m² 15,3 °C 23,2 °C 6,4 km/h (2 Bft)
03.09.2026 15:15 23,2 °C 60 % 1018,2 hPa 0,0 l/m² 2,4 km/h (1 Bft) W-NW 303 ° 0 min 125 W/m² 15,0 °C 23,2 °C 12,9 km/h (3 Bft)
03.09.2026 15:10 23,1 °C 61 % 1018,2 hPa 0,0 l/m² 0,2 km/h (0 Bft) SW 217 ° 0 min 116 W/m² 15,2 °C 23,1 °C 4,8 km/h (1 Bft)
03.09.2026 15:05 22,9 °C 62 % 1018,0 hPa 0,0 l/m² 0,5 km/h (0 Bft) S-SW 204 ° 5 min 214 W/m² 15,2 °C 22,9 °C 6,4 km/h (2 Bft)
03.09.2026 15:00 22,8 °C 61 % 1018,2 hPa 0,0 l/m² 1,0 km/h (0 Bft) S 186 ° 5 min 276 W/m² 14,9 °C 22,8 °C 11,3 km/h (2 Bft)
03.09.2026 14:55 22,8 °C 61 % 1018,3 hPa 0,0 l/m² 5,8 km/h (2 Bft) SW 224 ° 5 min 183 W/m² 14,9 °C 22,8 °C 16,1 km/h (3 Bft)
03.09.2026 14:50 22,9 °C 59 % 1018,3 hPa 0,0 l/m² 5,2 km/h (1 Bft) S 188 ° 0 min 134 W/m² 14,5 °C 22,9 °C 14,5 km/h (3 Bft)
03.09.2026 14:45 22,9 °C 59 % 1018,3 hPa 0,0 l/m² 5,5 km/h (2 Bft) S-SW 206 ° 0 min 120 W/m² 14,5 °C 22,9 °C 14,5 km/h (3 Bft)
03.09.2026 14:40 22,8 °C 60 % 1018,2 hPa 0,0 l/m² 4,6 km/h (1 Bft) S-SW 210 ° 0 min 134 W/m² 14,6 °C 22,8 °C 12,9 km/h (3 Bft)
03.09.2026 14:35 22,5 °C 60 % 1018,2 hPa 0,0 l/m² 5,7 km/h (2 Bft) S-SW 192 ° 5 min 290 W/m² 14,3 °C 22,5 °C 12,9 km/h (3 Bft)
03.09.2026 14:30 22,2 °C 61 % 1018,2 hPa 0,0 l/m² 2,7 km/h (1 Bft) S-SO 159 ° 5 min 260 W/m² 14,3 °C 22,2 °C 12,9 km/h (3 Bft)
03.09.2026 14:25 21,8 °C 62 % 1018,3 hPa 0,0 l/m² 4,0 km/h (1 Bft) S-SO 153 ° 5 min 373 W/m² 14,2 °C 21,8 °C 9,7 km/h (2 Bft)
03.09.2026 14:20 21,7 °C 62 % 1018,5 hPa 0,0 l/m² 3,4 km/h (1 Bft) S-SW 196 ° 0 min 125 W/m² 14,1 °C 21,7 °C 14,5 km/h (3 Bft)
03.09.2026 14:15 21,5 °C 62 % 1018,5 hPa 0,0 l/m² 2,1 km/h (1 Bft) S-SO 167 ° 0 min 105 W/m² 13,9 °C 21,5 °C 9,7 km/h (2 Bft)
03.09.2026 14:10 21,3 °C 63 % 1018,6 hPa 0,0 l/m² 6,1 km/h (2 Bft) S-SO 148 ° 0 min 146 W/m² 14,0 °C 21,3 °C 14,5 km/h (3 Bft)
03.09.2026 14:05 21,0 °C 66 % 1018,7 hPa 0,0 l/m² 0,2 km/h (0 Bft) SO 146 ° 0 min 142 W/m² 14,4 °C 21,0 °C 4,8 km/h (1 Bft)
03.09.2026 14:00 20,9 °C 66 % 1018,8 hPa 0,0 l/m² 0,0 km/h (0 Bft) SO 146 ° 0 min 109 W/m² 14,3 °C 20,9 °C 0,0 km/h (0 Bft)
03.09.2026 13:55 20,8 °C 65 % 1018,8 hPa 0,0 l/m² 0,7 km/h (0 Bft) S-SO 147 ° 0 min 98 W/m² 14,0 °C 20,8 °C 4,8 km/h (1 Bft)
03.09.2026 13:50 20,7 °C 65 % 1018,8 hPa 0,0 l/m² 2,1 km/h (1 Bft) S-SO 147 ° 0 min 93 W/m² 13,9 °C 20,7 °C 6,4 km/h (2 Bft)
03.09.2026 13:45 20,7 °C 64 % 1018,9 hPa 0,0 l/m² 1,6 km/h (1 Bft) SO 146 ° 0 min 100 W/m² 13,6 °C 20,7 °C 8,0 km/h (2 Bft)
03.09.2026 13:40 20,6 °C 64 % 1018,9 hPa 0,0 l/m² 2,5 km/h (1 Bft) S-SO 157 ° 0 min 76 W/m² 13,5 °C 20,6 °C 8,0 km/h (2 Bft)
03.09.2026 13:35 20,6 °C 64 % 1019,0 hPa 0,0 l/m² 0,5 km/h (0 Bft) S-SO 153 ° 0 min 83 W/m² 13,5 °C 20,6 °C 8,0 km/h (2 Bft)
03.09.2026 13:30 20,6 °C 64 % 1018,9 hPa 0,0 l/m² 0,2 km/h (0 Bft) S-SO 153 ° 0 min 84 W/m² 13,5 °C 20,6 °C 3,2 km/h (1 Bft)
03.09.2026 13:25 20,5 °C 64 % 1018,9 hPa 0,0 l/m² 0,0 km/h (0 Bft) S-SO 153 ° 0 min 91 W/m² 13,5 °C 20,5 °C 0,0 km/h (0 Bft)
03.09.2026 13:20 20,4 °C 64 % 1019,0 hPa 0,0 l/m² 0,0 km/h (0 Bft) S-SO 158 ° 0 min 91 W/m² 13,4 °C 20,4 °C 0,0 km/h (0 Bft)
03.09.2026 13:15 20,3 °C 64 % 1019,0 hPa 0,0 l/m² 0,0 km/h (0 Bft) S-SO 163 ° 0 min 90 W/m² 13,3 °C 20,3 °C 0,0 km/h (0 Bft)
03.09.2026 13:10 20,3 °C 65 % 1018,9 hPa 0,0 l/m² 0,0 km/h (0 Bft) S-SO 148 ° 0 min 90 W/m² 13,5 °C 20,3 °C 0,0 km/h (0 Bft)
03.09.2026 13:05 20,3 °C 64 % 1018,9 hPa 0,0 l/m² 0,0 km/h (0 Bft) S-SO 159 ° 0 min 93 W/m² 13,3 °C 20,3 °C 0,0 km/h (0 Bft)
03.09.2026 13:00 20,2 °C 65 % 1019,0 hPa 0,0 l/m² 0,0 km/h (0 Bft) SO 144 ° 0 min 83 W/m² 13,4 °C 20,2 °C 0,0 km/h (0 Bft)
03.09.2026 12:55 20,0 °C 65 % 1019,0 hPa 0,0 l/m² 0,0 km/h (0 Bft) S 171 ° 0 min 116 W/m² 13,2 °C 20,0 °C 0,0 km/h (0 Bft)
03.09.2026 12:50 19,8 °C 66 % 1018,9 hPa 0,0 l/m² 0,0 km/h (0 Bft) S-SO 156 ° 0 min 120 W/m² 13,3 °C 19,8 °C 0,0 km/h (0 Bft)
03.09.2026 12:45 19,7 °C 66 % 1018,9 hPa 0,0 l/m² 0,0 km/h (0 Bft) SW 229 ° 0 min 81 W/m² 13,2 °C 19,7 °C 0,0 km/h (0 Bft)
03.09.2026 12:40 19,7 °C 68 % 1019,1 hPa 0,0 l/m² 0,0 km/h (0 Bft) S-SW 196 ° 0 min 100 W/m² 13,6 °C 19,7 °C 0,0 km/h (0 Bft)
03.09.2026 12:35 19,7 °C 69 % 1019,1 hPa 0,0 l/m² 0,0 km/h (0 Bft) SO 136 ° 0 min 91 W/m² 13,8 °C 19,7 °C 0,0 km/h (0 Bft)
03.09.2026 12:30 19,8 °C 68 % 1019,2 hPa 0,0 l/m² 0,0 km/h (0 Bft) S 170 ° 0 min 104 W/m² 13,7 °C 19,8 °C 0,0 km/h (0 Bft)
03.09.2026 12:25 20,1 °C 66 % 1019,3 hPa 0,0 l/m² 0,0 km/h (0 Bft) SO 137 ° 0 min 125 W/m² 13,5 °C 20,1 °C 0,0 km/h (0 Bft)
03.09.2026 12:20 20,3 °C 63 % 1019,4 hPa 0,0 l/m² 0,0 km/h (0 Bft) SW 233 ° 0 min 105 W/m² 13,0 °C 20,3 °C 0,0 km/h (0 Bft)
03.09.2026 12:15 20,3 °C 62 % 1019,4 hPa 0,0 l/m² 0,0 km/h (0 Bft) S 183 ° 0 min 100 W/m² 12,8 °C 20,3 °C 0,0 km/h (0 Bft)
03.09.2026 12:10 20,3 °C 63 % 1019,4 hPa 0,0 l/m² 0,0 km/h (0 Bft) S-SO 168 ° 0 min 100 W/m² 13,0 °C 20,3 °C 0,0 km/h (0 Bft)
03.09.2026 12:05 20,4 °C 62 % 1019,3 hPa 0,0 l/m² 0,0 km/h (0 Bft) S-SO 153 ° 0 min 134 W/m² 12,9 °C 20,4 °C 0,0 km/h (0 Bft)
03.09.2026 12:00 20,5 °C 62 % 1019,4 hPa 0,0 l/m² 0,0 km/h (0 Bft) S-SW 198 ° 5 min 158 W/m² 13,0 °C 20,5 °C 0,0 km/h (0 Bft)
03.09.2026 11:55 20,8 °C 62 % 1019,4 hPa 0,0 l/m² 0,0 km/h (0 Bft) S-SO 153 ° 5 min 193 W/m² 13,2 °C 20,8 °C 0,0 km/h (0 Bft)
03.09.2026 11:50 20,9 °C 60 % 1019,7 hPa 0,0 l/m² 0,0 km/h (0 Bft) SW 230 ° 5 min 176 W/m² 12,8 °C 20,9 °C 0,0 km/h (0 Bft)
03.09.2026 11:45 20,9 °C 60 % 1019,6 hPa 0,0 l/m² 0,0 km/h (0 Bft) SW 234 ° 5 min 292 W/m² 12,8 °C 20,9 °C 0,0 km/h (0 Bft)
03.09.2026 11:40 20,8 °C 61 % 1019,7 hPa 0,0 l/m² 0,0 km/h (0 Bft) S-SO 161 ° 5 min 214 W/m² 13,0 °C 20,8 °C 0,0 km/h (0 Bft)
03.09.2026 11:35 20,8 °C 61 % 1019,5 hPa 0,0 l/m² 0,0 km/h (0 Bft) S 181 ° 5 min 253 W/m² 13,0 °C 20,8 °C 0,0 km/h (0 Bft)
03.09.2026 11:30 20,8 °C 61 % 1019,6 hPa 0,0 l/m² 0,0 km/h (0 Bft) S 180 ° 5 min 267 W/m² 13,0 °C 20,8 °C 0,0 km/h (0 Bft)
03.09.2026 11:25 20,7 °C 61 % 1019,6 hPa 0,0 l/m² 0,0 km/h (0 Bft) SO 142 ° 5 min 239 W/m² 12,9 °C 20,7 °C 0,0 km/h (0 Bft)
03.09.2026 11:20 20,7 °C 61 % 1019,6 hPa 0,0 l/m² 0,0 km/h (0 Bft) W-SW 244 ° 5 min 299 W/m² 12,9 °C 20,7 °C 0,0 km/h (0 Bft)
03.09.2026 11:15 20,4 °C 62 % 1019,6 hPa 0,0 l/m² 0,0 km/h (0 Bft) SW 218 ° 5 min 543 W/m² 12,9 °C 20,4 °C 0,0 km/h (0 Bft)
03.09.2026 11:10 20,2 °C 63 % 1019,6 hPa 0,0 l/m² 0,5 km/h (0 Bft) S-SO 157 ° 5 min 323 W/m² 12,9 °C 20,2 °C 12,9 km/h (3 Bft)
03.09.2026 11:05 20,0 °C 65 % 1019,6 hPa 0,0 l/m² 4,4 km/h (1 Bft) S-SO 150 ° 5 min 666 W/m² 13,2 °C 20,0 °C 16,1 km/h (3 Bft)
03.09.2026 11:00 19,4 °C 67 % 1019,6 hPa 0,0 l/m² 0,2 km/h (0 Bft) S 173 ° 5 min 367 W/m² 13,1 °C 19,4 °C 14,5 km/h (3 Bft)
03.09.2026 10:55 19,1 °C 67 % 1019,7 hPa 0,0 l/m² 0,0 km/h (0 Bft) O-SO 123 ° 5 min 399 W/m² 12,8 °C 19,1 °C 0,0 km/h (0 Bft)
03.09.2026 10:50 18,9 °C 67 % 1019,7 hPa 0,0 l/m² 0,0 km/h (0 Bft) S 184 ° 5 min 250 W/m² 12,6 °C 18,9 °C 0,0 km/h (0 Bft)
03.09.2026 10:45 18,7 °C 69 % 1019,8 hPa 0,0 l/m² 0,0 km/h (0 Bft) S-SW 192 ° 5 min 250 W/m² 12,9 °C 18,7 °C 0,0 km/h (0 Bft)
03.09.2026 10:40 18,5 °C 69 % 1019,9 hPa 0,0 l/m² 0,1 km/h (0 Bft) O-SO 123 ° 5 min 206 W/m² 12,7 °C 18,5 °C 3,2 km/h (1 Bft)
03.09.2026 10:35 18,3 °C 69 % 1020,1 hPa 0,0 l/m² 0,0 km/h (0 Bft) SO 134 ° 5 min 179 W/m² 12,5 °C 18,3 °C 0,0 km/h (0 Bft)
03.09.2026 10:30 18,3 °C 69 % 1020,0 hPa 0,0 l/m² 0,0 km/h (0 Bft) S 171 ° 5 min 186 W/m² 12,5 °C 18,3 °C 0,0 km/h (0 Bft)
03.09.2026 10:25 18,2 °C 69 % 1020,1 hPa 0,0 l/m² 0,0 km/h (0 Bft) SO 146 ° 0 min 146 W/m² 12,4 °C 18,2 °C 0,0 km/h (0 Bft)
03.09.2026 10:20 18,1 °C 69 % 1020,1 hPa 0,0 l/m² 0,0 km/h (0 Bft) S 186 ° 5 min 185 W/m² 12,3 °C 18,1 °C 0,0 km/h (0 Bft)
03.09.2026 10:15 18,0 °C 70 % 1020,1 hPa 0,0 l/m² 0,0 km/h (0 Bft) S-SO 166 ° 5 min 171 W/m² 12,4 °C 18,0 °C 0,0 km/h (0 Bft)
03.09.2026 10:10 17,8 °C 70 % 1019,7 hPa 0,0 l/m² 0,1 km/h (0 Bft) S 186 ° 5 min 204 W/m² 12,3 °C 17,8 °C 6,4 km/h (2 Bft)
03.09.2026 10:05 17,7 °C 71 % 1019,8 hPa 0,0 l/m² 0,0 km/h (0 Bft) S-SO 147 ° 0 min 148 W/m² 12,4 °C 17,7 °C 0,0 km/h (0 Bft)
03.09.2026 10:00 17,4 °C 73 % 1019,9 hPa 0,0 l/m² 0,0 km/h (0 Bft) SO 144 ° 5 min 181 W/m² 12,5 °C 17,4 °C 0,0 km/h (0 Bft)
03.09.2026 09:55 17,3 °C 74 % 1019,8 hPa 0,0 l/m² 0,0 km/h (0 Bft) O-SO 115 ° 5 min 167 W/m² 12,6 °C 17,3 °C 0,0 km/h (0 Bft)
03.09.2026 09:50 17,1 °C 74 % 1019,7 hPa 0,0 l/m² 0,0 km/h (0 Bft) O-SO 115 ° 0 min 111 W/m² 12,4 °C 17,1 °C 0,0 km/h (0 Bft)
03.09.2026 09:45 16,9 °C 74 % 1019,8 hPa 0,0 l/m² 0,0 km/h (0 Bft) O-SO 114 ° 0 min 144 W/m² 12,2 °C 16,9 °C 0,0 km/h (0 Bft)
03.09.2026 09:40 16,8 °C 73 % 1020,0 hPa 0,0 l/m² 0,0 km/h (0 Bft) O-SO 115 ° 0 min 144 W/m² 11,9 °C 16,8 °C 0,0 km/h (0 Bft)
03.09.2026 09:35 16,7 °C 76 % 1019,9 hPa 0,0 l/m² 0,0 km/h (0 Bft) O-SO 114 ° 5 min 174 W/m² 12,4 °C 16,7 °C 0,0 km/h (0 Bft)
03.09.2026 09:30 16,6 °C 76 % 1019,9 hPa 0,0 l/m² 0,0 km/h (0 Bft) O-SO 114 ° 5 min 167 W/m² 12,3 °C 16,6 °C 0,0 km/h (0 Bft)
03.09.2026 09:25 16,4 °C 76 % 1020,0 hPa 0,0 l/m² 0,0 km/h (0 Bft) S-SO 149 ° 0 min 142 W/m² 12,2 °C 16,4 °C 0,0 km/h (0 Bft)
03.09.2026 09:20 16,2 °C 77 % 1020,0 hPa 0,0 l/m² 0,0 km/h (0 Bft) SO 132 ° 0 min 134 W/m² 12,2 °C 16,2 °C 0,0 km/h (0 Bft)
03.09.2026 09:15 15,9 °C 78 % 1019,9 hPa 0,0 l/m² 0,0 km/h (0 Bft) SO 127 ° 5 min 163 W/m² 12,1 °C 15,9 °C 0,0 km/h (0 Bft)
03.09.2026 09:10 15,7 °C 78 % 1020,0 hPa 0,0 l/m² 0,0 km/h (0 Bft) SO 144 ° 0 min 120 W/m² 11,9 °C 15,7 °C 1,6 km/h (1 Bft)
03.09.2026 09:05 15,4 °C 80 % 1020,1 hPa 0,0 l/m² 0,9 km/h (0 Bft) SO 142 ° 0 min 100 W/m² 12,0 °C 15,4 °C 8,0 km/h (2 Bft)
03.09.2026 09:00 15,3 °C 81 % 1020,1 hPa 0,0 l/m² 0,5 km/h (0 Bft) O-SO 114 ° 0 min 77 W/m² 12,1 °C 15,3 °C 9,7 km/h (2 Bft)
03.09.2026 08:55 15,1 °C 81 % 1020,0 hPa 0,0 l/m² 0,6 km/h (0 Bft) O-SO 113 ° 0 min 79 W/m² 11,9 °C 15,1 °C 6,4 km/h (2 Bft)
03.09.2026 08:50 14,9 °C 82 % 1019,9 hPa 0,0 l/m² 0,1 km/h (0 Bft) O-SO 113 ° 0 min 77 W/m² 11,9 °C 14,9 °C 3,2 km/h (1 Bft)
03.09.2026 08:45 14,7 °C 82 % 1019,9 hPa 0,0 l/m² 2,0 km/h (1 Bft) O-SO 113 ° 0 min 70 W/m² 11,7 °C 14,7 °C 6,4 km/h (2 Bft)
03.09.2026 08:40 14,6 °C 82 % 1020,0 hPa 0,0 l/m² 0,0 km/h (0 Bft) O-SO 112 ° 0 min 46 W/m² 11,6 °C 14,6 °C 0,0 km/h (0 Bft)
03.09.2026 08:35 14,2 °C 83 % 1019,7 hPa 0,0 l/m² 0,0 km/h (0 Bft) O-SO 110 ° 0 min 86 W/m² 11,4 °C 14,2 °C 0,0 km/h (0 Bft)
03.09.2026 08:30 13,7 °C 82 % 1019,7 hPa 0,0 l/m² 0,0 km/h (0 Bft) O-SO 119 ° 0 min 128 W/m² 10,7 °C 13,7 °C 0,0 km/h (0 Bft)
03.09.2026 08:25 13,3 °C 82 % 1020,0 hPa 0,0 l/m² 0,0 km/h (0 Bft) N-NW 338 ° 0 min 100 W/m² 10,3 °C 13,3 °C 0,0 km/h (0 Bft)
03.09.2026 08:20 13,2 °C 82 % 1020,1 hPa 0,0 l/m² 0,0 km/h (0 Bft) N-NW 338 ° 0 min 76 W/m² 10,2 °C 13,2 °C 0,0 km/h (0 Bft)
03.09.2026 08:15 13,1 °C 82 % 1020,2 hPa 0,0 l/m² 0,0 km/h (0 Bft) N-NW 338 ° 0 min 42 W/m² 10,1 °C 13,1 °C 0,0 km/h (0 Bft)
03.09.2026 08:10 12,9 °C 82 % 1020,3 hPa 0,0 l/m² 0,0 km/h (0 Bft) N-NW 338 ° 0 min 26 W/m² 9,9 °C 12,9 °C 0,0 km/h (0 Bft)
03.09.2026 08:05 12,8 °C 82 % 1020,4 hPa 0,0 l/m² 0,0 km/h (0 Bft) N-NW 338 ° 0 min 14 W/m² 9,8 °C 12,8 °C 0,0 km/h (0 Bft)
03.09.2026 08:00 12,7 °C 82 % 1020,4 hPa 0,0 l/m² 0,0 km/h (0 Bft) N-NW 338 ° 0 min 14 W/m² 9,7 °C 12,7 °C 0,0 km/h (0 Bft)
03.09.2026 07:55 12,6 °C 82 % 1020,4 hPa 0,0 l/m² 0,0 km/h (0 Bft) N-NW 338 ° 0 min 16 W/m² 9,6 °C 12,6 °C 0,0 km/h (0 Bft)
03.09.2026 07:50 12,5 °C 82 % 1020,4 hPa 0,0 l/m² 0,0 km/h (0 Bft) N-NW 338 ° 0 min 16 W/m² 9,5 °C 12,5 °C 0,0 km/h (0 Bft)
03.09.2026 07:45 12,3 °C 82 % 1020,3 hPa 0,0 l/m² 0,0 km/h (0 Bft) N-NW 338 ° 0 min 23 W/m² 9,3 °C 12,3 °C 0,0 km/h (0 Bft)
03.09.2026 07:40 12,2 °C 82 % 1020,2 hPa 0,0 l/m² 0,0 km/h (0 Bft) N-NW 338 ° 0 min 44 W/m² 9,2 °C 12,2 °C 0,0 km/h (0 Bft)
03.09.2026 07:35 12,1 °C 82 % 1020,1 hPa 0,0 l/m² 0,0 km/h (0 Bft) N-NW 338 ° 0 min 69 W/m² 9,1 °C 12,1 °C 0,0 km/h (0 Bft)
03.09.2026 07:30 11,9 °C 82 % 1020,1 hPa 0,0 l/m² 0,0 km/h (0 Bft) N-NW 338 ° 0 min 58 W/m² 8,9 °C 11,9 °C 0,0 km/h (0 Bft)
03.09.2026 07:25 11,8 °C 82 % 1020,1 hPa 0,0 l/m² 0,0 km/h (0 Bft) N-NW 338 ° 0 min 42 W/m² 8,8 °C 11,8 °C 0,0 km/h (0 Bft)
03.09.2026 07:20 11,6 °C 82 % 1020,1 hPa 0,0 l/m² 0,0 km/h (0 Bft) N-NW 338 ° 0 min 32 W/m² 8,6 °C 11,6 °C 0,0 km/h (0 Bft)
03.09.2026 07:15 11,4 °C 82 % 1020,1 hPa 0,0 l/m² 0,0 km/h (0 Bft) N-NW 338 ° 0 min 21 W/m² 8,4 °C 11,4 °C 0,0 km/h (0 Bft)
03.09.2026 07:10 11,3 °C 82 % 1020,1 hPa 0,0 l/m² 0,0 km/h (0 Bft) N-NW 338 ° 0 min 12 W/m² 8,3 °C 11,3 °C 0,0 km/h (0 Bft)
03.09.2026 07:05 11,3 °C 82 % 1020,1 hPa 0,0 l/m² 0,0 km/h (0 Bft) N-NW 338 ° 0 min 7 W/m² 8,3 °C 11,3 °C 0,0 km/h (0 Bft)
03.09.2026 07:00 11,2 °C 82 % 1020,1 hPa 0,0 l/m² 0,0 km/h (0 Bft) N-NW 338 ° 0 min 5 W/m² 8,2 °C 11,2 °C 0,0 km/h (0 Bft)
03.09.2026 06:55 11,1 °C 82 % 1020,3 hPa 0,0 l/m² 0,0 km/h (0 Bft) N-NW 338 ° 0 min 5 W/m² 8,1 °C 11,1 °C 0,0 km/h (0 Bft)
03.09.2026 06:50 11,1 °C 82 % 1020,4 hPa 0,0 l/m² 0,0 km/h (0 Bft) N-NW 338 ° 0 min 0 W/m² 8,1 °C 11,1 °C 0,0 km/h (0 Bft)
03.09.2026 06:45 11,0 °C 82 % 1020,5 hPa 0,0 l/m² 0,0 km/h (0 Bft) N-NW 338 ° 0 min 0 W/m² 8,0 °C 11,0 °C 0,0 km/h (0 Bft)
03.09.2026 06:40 11,0 °C 82 % 1020,4 hPa 0,0 l/m² 0,0 km/h (0 Bft) N-NW 338 ° 0 min 0 W/m² 8,0 °C 11,0 °C 0,0 km/h (0 Bft)
03.09.2026 06:35 11,0 °C 82 % 1020,2 hPa 0,0 l/m² 0,0 km/h (0 Bft) N-NW 338 ° 0 min 0 W/m² 8,0 °C 11,0 °C 0,0 km/h (0 Bft)
03.09.2026 06:30 10,8 °C 82 % 1020,3 hPa 0,0 l/m² 0,0 km/h (0 Bft) N-NW 338 ° 0 min 0 W/m² 7,9 °C 10,8 °C 0,0 km/h (0 Bft)
03.09.2026 06:25 10,6 °C 82 % 1020,1 hPa 0,0 l/m² 0,0 km/h (0 Bft) N-NW 338 ° 0 min 0 W/m² 7,7 °C 10,6 °C 0,0 km/h (0 Bft)
03.09.2026 06:20 10,3 °C 83 % 1020,0 hPa 0,0 l/m² 0,0 km/h (0 Bft) N-NW 338 ° 0 min 0 W/m² 7,5 °C 10,3 °C 0,0 km/h (0 Bft)
03.09.2026 06:15 10,4 °C 83 % 1020,1 hPa 0,0 l/m² 0,0 km/h (0 Bft) N-NW 338 ° 0 min 0 W/m² 7,6 °C 10,4 °C 0,0 km/h (0 Bft)
03.09.2026 06:10 10,5 °C 83 % 1020,1 hPa 0,0 l/m² 0,0 km/h (0 Bft) N-NW 338 ° 0 min 0 W/m² 7,7 °C 10,5 °C 0,0 km/h (0 Bft)
03.09.2026 06:05 10,7 °C 83 % 1020,3 hPa 0,0 l/m² 0,0 km/h (0 Bft) N-NW 338 ° 0 min 0 W/m² 7,9 °C 10,7 °C 0,0 km/h (0 Bft)
03.09.2026 06:00 10,6 °C 82 % 1020,3 hPa 0,0 l/m² 0,0 km/h (0 Bft) N-NW 338 ° 0 min 0 W/m² 7,7 °C 10,6 °C 0,0 km/h (0 Bft)
03.09.2026 05:55 10,4 °C 82 % 1020,2 hPa 0,0 l/m² 0,0 km/h (0 Bft) N-NW 338 ° 0 min 0 W/m² 7,5 °C 10,4 °C 0,0 km/h (0 Bft)
03.09.2026 05:50 10,3 °C 83 % 1020,1 hPa 0,0 l/m² 0,0 km/h (0 Bft) N-NW 338 ° 0 min 0 W/m² 7,5 °C 10,3 °C 0,0 km/h (0 Bft)
03.09.2026 05:45 10,4 °C 83 % 1020,1 hPa 0,0 l/m² 0,0 km/h (0 Bft) N-NW 338 ° 0 min 0 W/m² 7,6 °C 10,4 °C 0,0 km/h (0 Bft)
03.09.2026 05:40 10,4 °C 83 % 1020,0 hPa 0,0 l/m² 0,0 km/h (0 Bft) N-NW 338 ° 0 min 0 W/m² 7,6 °C 10,4 °C 0,0 km/h (0 Bft)
03.09.2026 05:35 10,5 °C 83 % 1020,1 hPa 0,0 l/m² 0,0 km/h (0 Bft) N-NW 338 ° 0 min 0 W/m² 7,7 °C 10,5 °C 0,0 km/h (0 Bft)
03.09.2026 05:30 10,6 °C 83 % 1020,1 hPa 0,0 l/m² 0,0 km/h (0 Bft) N-NW 338 ° 0 min 0 W/m² 7,8 °C 10,6 °C 0,0 km/h (0 Bft)
03.09.2026 05:25 10,6 °C 83 % 1020,2 hPa 0,0 l/m² 0,0 km/h (0 Bft) N-NW 338 ° 0 min 0 W/m² 7,8 °C 10,6 °C 0,0 km/h (0 Bft)
03.09.2026 05:20 10,6 °C 83 % 1020,2 hPa 0,0 l/m² 0,0 km/h (0 Bft) N-NW 338 ° 0 min 0 W/m² 7,8 °C 10,6 °C 0,0 km/h (0 Bft)
03.09.2026 05:15 10,6 °C 83 % 1020,3 hPa 0,0 l/m² 0,0 km/h (0 Bft) N-NW 338 ° 0 min 0 W/m² 7,8 °C 10,6 °C 0,0 km/h (0 Bft)
03.09.2026 05:10 10,4 °C 83 % 1020,3 hPa 0,0 l/m² 0,0 km/h (0 Bft) N-NW 338 ° 0 min 0 W/m² 7,6 °C 10,4 °C 0,0 km/h (0 Bft)
03.09.2026 05:05 10,6 °C 83 % 1020,4 hPa 0,0 l/m² 0,0 km/h (0 Bft) N-NW 338 ° 0 min 0 W/m² 7,8 °C 10,6 °C 0,0 km/h (0 Bft)
03.09.2026 05:00 10,7 °C 83 % 1020,5 hPa 0,0 l/m² 0,0 km/h (0 Bft) N-NW 338 ° 0 min 0 W/m² 7,9 °C 10,7 °C 0,0 km/h (0 Bft)
03.09.2026 04:55 10,8 °C 83 % 1020,6 hPa 0,0 l/m² 0,0 km/h (0 Bft) N-NW 338 ° 0 min 0 W/m² 8,0 °C 10,8 °C 0,0 km/h (0 Bft)
03.09.2026 04:50 10,9 °C 83 % 1020,7 hPa 0,0 l/m² 0,0 km/h (0 Bft) N-NW 338 ° 0 min 0 W/m² 8,1 °C 10,9 °C 0,0 km/h (0 Bft)
03.09.2026 04:45 11,2 °C 83 % 1020,6 hPa 0,0 l/m² 0,0 km/h (0 Bft) N-NW 338 ° 0 min 0 W/m² 8,4 °C 11,2 °C 0,0 km/h (0 Bft)
03.09.2026 04:40 11,2 °C 83 % 1020,6 hPa 0,0 l/m² 0,0 km/h (0 Bft) N-NW 338 ° 0 min 0 W/m² 8,4 °C 11,2 °C 0,0 km/h (0 Bft)
03.09.2026 04:35 11,2 °C 83 % 1020,6 hPa 0,0 l/m² 0,0 km/h (0 Bft) N-NW 338 ° 0 min 0 W/m² 8,4 °C 11,2 °C 0,0 km/h (0 Bft)
03.09.2026 04:30 11,3 °C 83 % 1020,5 hPa 0,0 l/m² 0,0 km/h (0 Bft) N-NW 338 ° 0 min 0 W/m² 8,5 °C 11,3 °C 0,0 km/h (0 Bft)
03.09.2026 04:25 11,4 °C 82 % 1020,5 hPa 0,0 l/m² 0,0 km/h (0 Bft) N-NW 338 ° 0 min 0 W/m² 8,4 °C 11,4 °C 0,0 km/h (0 Bft)
03.09.2026 04:20 11,5 °C 83 % 1020,5 hPa 0,0 l/m² 0,0 km/h (0 Bft) N-NW 338 ° 0 min 0 W/m² 8,7 °C 11,5 °C 0,0 km/h (0 Bft)
03.09.2026 04:15 11,6 °C 83 % 1020,5 hPa 0,0 l/m² 0,0 km/h (0 Bft) N-NW 338 ° 0 min 0 W/m² 8,8 °C 11,6 °C 0,0 km/h (0 Bft)
03.09.2026 04:10 11,7 °C 82 % 1020,5 hPa 0,0 l/m² 0,0 km/h (0 Bft) N-NW 338 ° 0 min 0 W/m² 8,7 °C 11,7 °C 0,0 km/h (0 Bft)
03.09.2026 04:05 11,8 °C 83 % 1020,5 hPa 0,0 l/m² 0,0 km/h (0 Bft) N-NW 338 ° 0 min 0 W/m² 9,0 °C 11,8 °C 0,0 km/h (0 Bft)
03.09.2026 04:00 11,8 °C 83 % 1020,5 hPa 0,0 l/m² 0,0 km/h (0 Bft) N-NW 338 ° 0 min 0 W/m² 9,0 °C 11,8 °C 0,0 km/h (0 Bft)
03.09.2026 03:55 11,9 °C 83 % 1020,5 hPa 0,0 l/m² 0,0 km/h (0 Bft) N-NW 338 ° 0 min 0 W/m² 9,1 °C 11,9 °C 0,0 km/h (0 Bft)
03.09.2026 03:50 11,9 °C 82 % 1020,5 hPa 0,0 l/m² 0,0 km/h (0 Bft) N-NW 338 ° 0 min 0 W/m² 8,9 °C 11,9 °C 0,0 km/h (0 Bft)
03.09.2026 03:45 11,9 °C 82 % 1020,6 hPa 0,0 l/m² 0,0 km/h (0 Bft) N-NW 338 ° 0 min 0 W/m² 8,9 °C 11,9 °C 0,0 km/h (0 Bft)
03.09.2026 03:40 12,0 °C 82 % 1020,5 hPa 0,0 l/m² 0,0 km/h (0 Bft) N-NW 338 ° 0 min 0 W/m² 9,0 °C 12,0 °C 0,0 km/h (0 Bft)
03.09.2026 03:35 12,0 °C 82 % 1020,5 hPa 0,0 l/m² 0,0 km/h (0 Bft) N-NW 338 ° 0 min 0 W/m² 9,0 °C 12,0 °C 0,0 km/h (0 Bft)
03.09.2026 03:30 12,0 °C 82 % 1020,5 hPa 0,0 l/m² 0,0 km/h (0 Bft) N-NW 338 ° 0 min 0 W/m² 9,0 °C 12,0 °C 0,0 km/h (0 Bft)
03.09.2026 03:25 12,0 °C 82 % 1020,5 hPa 0,0 l/m² 0,0 km/h (0 Bft) N-NW 338 ° 0 min 0 W/m² 9,0 °C 12,0 °C 0,0 km/h (0 Bft)
03.09.2026 03:20 12,1 °C 82 % 1020,6 hPa 0,0 l/m² 0,0 km/h (0 Bft) N-NW 338 ° 0 min 0 W/m² 9,1 °C 12,1 °C 0,0 km/h (0 Bft)
03.09.2026 03:15 12,1 °C 82 % 1020,6 hPa 0,0 l/m² 0,0 km/h (0 Bft) N-NW 338 ° 0 min 0 W/m² 9,1 °C 12,1 °C 0,0 km/h (0 Bft)
03.09.2026 03:10 12,2 °C 82 % 1020,6 hPa 0,0 l/m² 0,0 km/h (0 Bft) N-NW 338 ° 0 min 0 W/m² 9,2 °C 12,2 °C 0,0 km/h (0 Bft)
03.09.2026 03:05 12,2 °C 82 % 1020,6 hPa 0,0 l/m² 0,0 km/h (0 Bft) N-NW 338 ° 0 min 0 W/m² 9,2 °C 12,2 °C 0,0 km/h (0 Bft)
03.09.2026 03:00 12,2 °C 82 % 1020,7 hPa 0,0 l/m² 0,0 km/h (0 Bft) N-NW 338 ° 0 min 0 W/m² 9,2 °C 12,2 °C 0,0 km/h (0 Bft)
03.09.2026 02:55 12,1 °C 82 % 1020,6 hPa 0,0 l/m² 0,0 km/h (0 Bft) N-NW 338 ° 0 min 0 W/m² 9,1 °C 12,1 °C 0,0 km/h (0 Bft)
03.09.2026 02:50 12,1 °C 82 % 1020,6 hPa 0,0 l/m² 0,0 km/h (0 Bft) N-NW 338 ° 0 min 0 W/m² 9,1 °C 12,1 °C 0,0 km/h (0 Bft)
03.09.2026 02:45 12,1 °C 82 % 1020,6 hPa 0,0 l/m² 0,0 km/h (0 Bft) N-NW 338 ° 0 min 0 W/m² 9,1 °C 12,1 °C 0,0 km/h (0 Bft)
03.09.2026 02:40 12,2 °C 82 % 1020,6 hPa 0,0 l/m² 0,0 km/h (0 Bft) N-NW 338 ° 0 min 0 W/m² 9,2 °C 12,2 °C 0,0 km/h (0 Bft)
03.09.2026 02:35 12,3 °C 82 % 1020,6 hPa 0,0 l/m² 0,0 km/h (0 Bft) N-NW 338 ° 0 min 0 W/m² 9,3 °C 12,3 °C 0,0 km/h (0 Bft)
03.09.2026 02:30 12,3 °C 82 % 1020,7 hPa 0,0 l/m² 0,0 km/h (0 Bft) N-NW 338 ° 0 min 0 W/m² 9,3 °C 12,3 °C 0,0 km/h (0 Bft)
03.09.2026 02:25 12,4 °C 82 % 1020,8 hPa 0,0 l/m² 0,0 km/h (0 Bft) N-NW 338 ° 0 min 0 W/m² 9,4 °C 12,4 °C 0,0 km/h (0 Bft)
03.09.2026 02:20 12,4 °C 82 % 1020,7 hPa 0,0 l/m² 0,0 km/h (0 Bft) N-NW 338 ° 0 min 0 W/m² 9,4 °C 12,4 °C 0,0 km/h (0 Bft)
03.09.2026 02:15 12,5 °C 82 % 1020,8 hPa 0,0 l/m² 0,0 km/h (0 Bft) N-NW 338 ° 0 min 0 W/m² 9,5 °C 12,5 °C 0,0 km/h (0 Bft)
03.09.2026 02:10 12,5 °C 82 % 1020,7 hPa 0,0 l/m² 0,0 km/h (0 Bft) N-NW 338 ° 0 min 0 W/m² 9,5 °C 12,5 °C 0,0 km/h (0 Bft)
03.09.2026 02:05 12,5 °C 82 % 1020,6 hPa 0,0 l/m² 0,0 km/h (0 Bft) N-NW 338 ° 0 min 0 W/m² 9,5 °C 12,5 °C 0,0 km/h (0 Bft)
03.09.2026 02:00 12,6 °C 82 % 1020,7 hPa 0,0 l/m² 0,0 km/h (0 Bft) N-NW 338 ° 0 min 0 W/m² 9,6 °C 12,6 °C 0,0 km/h (0 Bft)
03.09.2026 01:55 12,6 °C 82 % 1020,8 hPa 0,0 l/m² 0,0 km/h (0 Bft) N-NW 338 ° 0 min 0 W/m² 9,6 °C 12,6 °C 0,0 km/h (0 Bft)
03.09.2026 01:50 12,7 °C 82 % 1020,8 hPa 0,0 l/m² 0,0 km/h (0 Bft) N-NW 338 ° 0 min 0 W/m² 9,7 °C 12,7 °C 0,0 km/h (0 Bft)
03.09.2026 01:45 12,7 °C 81 % 1020,9 hPa 0,0 l/m² 0,0 km/h (0 Bft) N-NW 338 ° 0 min 0 W/m² 9,5 °C 12,7 °C 0,0 km/h (0 Bft)
03.09.2026 01:40 12,8 °C 81 % 1020,9 hPa 0,0 l/m² 0,0 km/h (0 Bft) N-NW 338 ° 0 min 0 W/m² 9,6 °C 12,8 °C 0,0 km/h (0 Bft)
03.09.2026 01:35 12,7 °C 82 % 1021,0 hPa 0,0 l/m² 0,0 km/h (0 Bft) N-NW 338 ° 0 min 0 W/m² 9,7 °C 12,7 °C 0,0 km/h (0 Bft)
03.09.2026 01:30 12,6 °C 81 % 1021,0 hPa 0,0 l/m² 0,0 km/h (0 Bft) N-NW 338 ° 0 min 0 W/m² 9,4 °C 12,6 °C 0,0 km/h (0 Bft)
03.09.2026 01:25 12,6 °C 81 % 1020,9 hPa 0,0 l/m² 0,0 km/h (0 Bft) N-NW 338 ° 0 min 0 W/m² 9,4 °C 12,6 °C 0,0 km/h (0 Bft)
03.09.2026 01:20 12,7 °C 81 % 1020,8 hPa 0,0 l/m² 0,0 km/h (0 Bft) N-NW 338 ° 0 min 0 W/m² 9,5 °C 12,7 °C 0,0 km/h (0 Bft)
03.09.2026 01:15 12,8 °C 81 % 1020,8 hPa 0,0 l/m² 0,0 km/h (0 Bft) N-NW 338 ° 0 min 0 W/m² 9,6 °C 12,8 °C 0,0 km/h (0 Bft)
03.09.2026 01:10 12,9 °C 81 % 1020,8 hPa 0,0 l/m² 0,0 km/h (0 Bft) N-NW 338 ° 0 min 0 W/m² 9,7 °C 12,9 °C 0,0 km/h (0 Bft)
03.09.2026 01:05 13,1 °C 80 % 1020,8 hPa 0,0 l/m² 0,0 km/h (0 Bft) N-NW 338 ° 0 min 0 W/m² 9,7 °C 13,1 °C 0,0 km/h (0 Bft)
03.09.2026 01:00 13,3 °C 81 % 1020,8 hPa 0,0 l/m² 0,0 km/h (0 Bft) N-NW 338 ° 0 min 0 W/m² 10,1 °C 13,3 °C 0,0 km/h (0 Bft)
03.09.2026 00:55 13,3 °C 81 % 1020,8 hPa 0,0 l/m² 0,0 km/h (0 Bft) N-NW 338 ° 0 min 0 W/m² 10,1 °C 13,3 °C 0,0 km/h (0 Bft)
03.09.2026 00:50 13,3 °C 80 % 1020,8 hPa 0,0 l/m² 0,0 km/h (0 Bft) N-NW 338 ° 0 min 0 W/m² 9,9 °C 13,3 °C 0,0 km/h (0 Bft)
03.09.2026 00:45 13,3 °C 80 % 1020,8 hPa 0,0 l/m² 0,0 km/h (0 Bft) N-NW 338 ° 0 min 0 W/m² 9,9 °C 13,3 °C 0,0 km/h (0 Bft)
03.09.2026 00:40 13,4 °C 80 % 1020,8 hPa 0,0 l/m² 0,0 km/h (0 Bft) N-NW 338 ° 0 min 0 W/m² 10,0 °C 13,4 °C 0,0 km/h (0 Bft)
03.09.2026 00:35 13,4 °C 80 % 1020,8 hPa 0,0 l/m² 0,0 km/h (0 Bft) N-NW 338 ° 0 min 0 W/m² 10,0 °C 13,4 °C 0,0 km/h (0 Bft)
03.09.2026 00:30 13,4 °C 80 % 1020,9 hPa 0,0 l/m² 0,0 km/h (0 Bft) N-NW 338 ° 0 min 0 W/m² 10,0 °C 13,4 °C 0,0 km/h (0 Bft)
03.09.2026 00:25 13,5 °C 79 % 1020,9 hPa 0,0 l/m² 0,0 km/h (0 Bft) N-NW 338 ° 0 min 0 W/m² 9,9 °C 13,5 °C 0,0 km/h (0 Bft)
03.09.2026 00:20 13,6 °C 79 % 1020,8 hPa 0,0 l/m² 0,0 km/h (0 Bft) N-NW 338 ° 0 min 0 W/m² 10,0 °C 13,6 °C 0,0 km/h (0 Bft)
03.09.2026 00:15 13,7 °C 79 % 1020,8 hPa 0,0 l/m² 0,0 km/h (0 Bft) N-NW 338 ° 0 min 0 W/m² 10,1 °C 13,7 °C 0,0 km/h (0 Bft)
03.09.2026 00:10 13,9 °C 78 % 1020,7 hPa 0,0 l/m² 0,0 km/h (0 Bft) N-NW 338 ° 0 min 0 W/m² 10,1 °C 13,9 °C 0,0 km/h (0 Bft)
03.09.2026 00:05 14,1 °C 78 % 1020,7 hPa 0,0 l/m² 0,0 km/h (0 Bft) N-NW 338 ° 0 min 0 W/m² 10,3 °C 14,1 °C 0,0 km/h (0 Bft)
03.09.2026 00:00 14,3 °C 78 % 1020,7 hPa 0,0 l/m² 0,0 km/h (0 Bft) N-NW 338 ° 0 min 0 W/m² 10,5 °C 14,3 °C 0,0 km/h (0 Bft)
02.09.2026 23:55 14,4 °C 78 % 1020,6 hPa 0,0 l/m² 0,0 km/h (0 Bft) N-NW 338 ° 0 min 0 W/m² 10,6 °C 14,4 °C 0,0 km/h (0 Bft)
02.09.2026 23:50 14,6 °C 77 % 1020,6 hPa 0,0 l/m² 0,0 km/h (0 Bft) N-NW 338 ° 0 min 0 W/m² 10,6 °C 14,6 °C 0,0 km/h (0 Bft)
02.09.2026 23:45 14,8 °C 77 % 1020,6 hPa 0,0 l/m² 0,0 km/h (0 Bft) N-NW 338 ° 0 min 0 W/m² 10,8 °C 14,8 °C 0,0 km/h (0 Bft)
02.09.2026 23:40 15,0 °C 77 % 1020,6 hPa 0,0 l/m² 0,0 km/h (0 Bft) N-NW 338 ° 0 min 0 W/m² 11,0 °C 15,0 °C 0,0 km/h (0 Bft)
02.09.2026 23:35 15,0 °C 77 % 1020,5 hPa 0,0 l/m² 0,0 km/h (0 Bft) N-NW 338 ° 0 min 0 W/m² 11,0 °C 15,0 °C 0,0 km/h (0 Bft)
02.09.2026 23:30 15,1 °C 77 % 1020,5 hPa 0,0 l/m² 0,0 km/h (0 Bft) N-NW 338 ° 0 min 0 W/m² 11,1 °C 15,1 °C 0,0 km/h (0 Bft)
02.09.2026 23:25 15,2 °C 76 % 1020,5 hPa 0,0 l/m² 0,0 km/h (0 Bft) N-NW 338 ° 0 min 0 W/m² 11,0 °C 15,2 °C 0,0 km/h (0 Bft)
02.09.2026 23:20 15,3 °C 77 % 1020,5 hPa 0,0 l/m² 0,0 km/h (0 Bft) N-NW 338 ° 0 min 0 W/m² 11,3 °C 15,3 °C 0,0 km/h (0 Bft)
02.09.2026 23:15 15,3 °C 77 % 1020,5 hPa 0,0 l/m² 0,0 km/h (0 Bft) N-NW 338 ° 0 min 0 W/m² 11,3 °C 15,3 °C 0,0 km/h (0 Bft)
02.09.2026 23:10 15,3 °C 76 % 1020,5 hPa 0,0 l/m² 0,0 km/h (0 Bft) N-NW 338 ° 0 min 0 W/m² 11,1 °C 15,3 °C 0,0 km/h (0 Bft)
02.09.2026 23:05 15,3 °C 76 % 1020,5 hPa 0,0 l/m² 0,0 km/h (0 Bft) N-NW 338 ° 0 min 0 W/m² 11,1 °C 15,3 °C 0,0 km/h (0 Bft)
02.09.2026 23:00 15,4 °C 76 % 1020,6 hPa 0,0 l/m² 0,0 km/h (0 Bft) N-NW 338 ° 0 min 0 W/m² 11,2 °C 15,4 °C 0,0 km/h (0 Bft)
02.09.2026 22:55 15,4 °C 77 % 1020,6 hPa 0,0 l/m² 0,0 km/h (0 Bft) N-NW 338 ° 0 min 0 W/m² 11,4 °C 15,4 °C 0,0 km/h (0 Bft)
02.09.2026 22:50 15,6 °C 77 % 1020,6 hPa 0,0 l/m² 0,0 km/h (0 Bft) N-NW 338 ° 0 min 0 W/m² 11,6 °C 15,6 °C 0,0 km/h (0 Bft)
02.09.2026 22:45 15,7 °C 75 % 1020,6 hPa 0,0 l/m² 0,0 km/h (0 Bft) N-NW 338 ° 0 min 0 W/m² 11,3 °C 15,7 °C 0,0 km/h (0 Bft)
02.09.2026 22:40 15,8 °C 74 % 1020,6 hPa 0,0 l/m² 0,0 km/h (0 Bft) N-NW 338 ° 0 min 0 W/m² 11,2 °C 15,8 °C 0,0 km/h (0 Bft)
02.09.2026 22:35 16,1 °C 74 % 1020,5 hPa 0,0 l/m² 0,0 km/h (0 Bft) N-NW 338 ° 0 min 0 W/m² 11,5 °C 16,1 °C 0,0 km/h (0 Bft)
02.09.2026 22:30 16,3 °C 73 % 1020,6 hPa 0,0 l/m² 0,0 km/h (0 Bft) N-NW 338 ° 0 min 0 W/m² 11,4 °C 16,3 °C 0,0 km/h (0 Bft)
02.09.2026 22:25 16,4 °C 72 % 1020,6 hPa 0,0 l/m² 0,0 km/h (0 Bft) N-NW 338 ° 0 min 0 W/m² 11,3 °C 16,4 °C 0,0 km/h (0 Bft)
02.09.2026 22:20 16,7 °C 72 % 1020,6 hPa 0,0 l/m² 0,0 km/h (0 Bft) N-NW 338 ° 0 min 0 W/m² 11,6 °C 16,7 °C 0,0 km/h (0 Bft)
02.09.2026 22:15 16,8 °C 72 % 1020,6 hPa 0,0 l/m² 0,0 km/h (0 Bft) N-NW 338 ° 0 min 0 W/m² 11,7 °C 16,8 °C 0,0 km/h (0 Bft)
02.09.2026 22:10 16,8 °C 71 % 1020,6 hPa 0,0 l/m² 0,0 km/h (0 Bft) N-NW 338 ° 0 min 0 W/m² 11,5 °C 16,8 °C 0,0 km/h (0 Bft)
02.09.2026 22:05 16,9 °C 71 % 1020,6 hPa 0,0 l/m² 0,0 km/h (0 Bft) N-NW 338 ° 0 min 0 W/m² 11,6 °C 16,9 °C 0,0 km/h (0 Bft)
02.09.2026 22:00 17,0 °C 71 % 1020,6 hPa 0,0 l/m² 0,0 km/h (0 Bft) N-NW 338 ° 0 min 0 W/m² 11,7 °C 17,0 °C 0,0 km/h (0 Bft)
_ Min-Zeit 05:50 17:10 17:15 - 22:00 - - - - 05:55 05:50 22:00
Minimum _ 10,3 °C 52 % 1017,5 hPa - 0,0 km/h (0 Bft) - - - - 7,5 °C 10,3 °C 0,0 km/h (0 Bft)
_ Max-Zeit 17:20 03:55 01:30 22:00 18:20 - - 09:15 11:05 19:30 17:20 16:30
Maximum _ 25,7 °C 83 % 1021,0 hPa 0,0 l/m² 8,5 km/h
N-NW (2 Bft)
- - 5 min 666 W/m² 17,2 °C 25,7 °C 30,6 km/h
NW (5 Bft)
Durchschnitt _ 17,3 °C 72 % 1019,7 hPa #0,0 l/m² 0,8 km/h (0 Bft) W-NW - #4:05 h 127 W/m² 12,0 °C 17,3 °C 3,1 km/h (1 Bft)